Left ArrowRight Arrow

33.98154, -81.23621

Hourly Observations for June 16, 2024

Temp ( °F °C ) Dew Point ( °F °C ) Humidity (%) Winds ( mph kmh ) Pressure ( in mb ) Visibility ( mi km ) Precip ( " mm )
12:56 am 00:56 Partly Cloudy 76 24.4 71 21.7 85 85 Calm 30.01 1016 10 16 0.00 0.00
1:56 am 01:56 Partly Cloudy 75 23.9 71 21.7 88 88 Calm 30.01 1016 10 16 0.00 0.00
2:56 am 02:56 Mostly Clear 75 23.9 71 21.7 88 88 Calm 30.02 1017 10 16 0.00 0.00
3:56 am 03:56 Partly Cloudy 74 23.3 71 21.7 91 91 Calm 30.02 1017 10 16 0.00 0.00
4:56 am 04:56 Mostly Cloudy 72 22.2 70 21.1 93 93 ESE 5 7 30.04 1017 10 16 0.00 0.00
5:56 am 05:56 Mostly Clear 72 22.2 71 21.7 97 97 E 6 9 30.05 1018 8 13 0.00 0.00
6:56 am 06:56 Mostly Sunny 72 22.2 71 21.7 97 97 E 6 9 30.07 1018 7 11 0.00 0.00
7:56 am 07:56 Mostly Cloudy 74 23.3 71 21.7 91 91 ENE 6 9 30.09 1019 7 11 0.00 0.00
8:56 am 08:56 Mostly Cloudy 77 25 71 21.7 82 82 Calm 30.11 1020 9 14 0.00 0.00
9:56 am 09:56 Mostly Cloudy 83 28.3 72 22.2 70 70 ENE 3 6 30.12 1020 10 16 0.00 0.00
10:56 am 10:56 Mostly Sunny 86 30 68 20 55 55 SSE 3 6 30.13 1020 10 16 0.00 0.00
11:56 am 11:56 Mostly Sunny 88 31.1 67 19.4 50 50 SSE 5 7 30.12 1020 10 16 0.00 0.00
12:56 pm 12:56 Partly Cloudy 91 32.8 70 21.1 50 50 VRB 3 6 30.11 1020 10 16 0.00 0.00
1:56 pm 13:56 Partly Cloudy 91 32.8 70 21.1 50 50 E 7 11 30.10 1019 10 16 0.00 0.00
2:56 pm 14:56 Partly Cloudy 92 33.3 72 22.2 52 52 ESE 8 13 30.06 1018 10 16 0.00 0.00
3:56 pm 15:56 Partly Cloudy 94 34.4 69 20.6 45 45 E 9 15 30.06 1018 10 16 0.00 0.00
4:56 pm 16:56 Mostly Cloudy 93 33.9 70 21.1 47 47 ENE 7 11 30.05 1018 10 16 0.00 0.00
5:56 pm 17:56 Mostly Cloudy 93 33.9 70 21.1 47 47 SE 14 22 30.05 1018 10 16 0.00 0.00
6:26 pm 18:26 Sunny 89 31.7 72 22.2 57 57 S 14 22 30.06 1018 10 16 0.00 0.00
6:56 pm 18:56 Partly Cloudy 87 30.6 72 22.2 61 61 S 10 17 30.06 1018 10 16 0.00 0.00
7:56 pm 19:56 Sunny 86 30 69 20.6 57 57 SSE 13 20 30.08 1019 10 16 0.00 0.00
8:56 pm 20:56 Mostly Clear 83 28.3 69 20.6 63 63 SSE 9 15 30.09 1019 10 16 0.00 0.00
9:56 pm 21:56 Clear 81 27.2 71 21.7 72 72 S 6 9 30.10 1019 10 16 0.00 0.00
10:56 pm 22:56 Mostly Cloudy 80 26.7 71 21.7 74 74 ESE 6 9 30.13 1020 10 16 0.00 0.00
11:56 pm 23:56 Clear 79 26.1 72 22.2 79 79 E 7 11 30.14 1021 10 16 0.00 0.00

Powered by Vaisala Xweather